Regional Weather Roundup
Issued by NWS Upton, NY

Current Version | Previous Version | Graphics & Text | Print | Product List | Glossary Off
Versions: 1 2 3 4 5 6 7 8 9 10 11 12 13 14 15 16 17 18 19 20 21 22 23 24 25 26 27

000
ASUS41 KOKX 281605
RWROKX

REGIONAL WEATHER ROUNDUP
NATIONAL WEATHER SERVICE NEW YORK NY
1200 PM EDT THU JUL 28 2016

NOTE: "FAIR" INDICATES FEW OR NO CLOUDS BELOW 12,000 FEET WITH NO
SIGNIFICANT WEATHER AND/OR OBSTRUCTIONS TO VISIBILITY.

NYZ071-072-176-178-NJZ106-104-281700-
NEW YORK CITY METRO AREA

CITY           SKY/WX    TMP DP  RH WIND       PRES   REMARKS
Central Park   MOSUNNY   90  61  37 VRB3      29.93F HX  90
LaGuardia APRT PTSUNNY   92  61  35 NW5       29.89F HX  92
Kennedy INTL   PTSUNNY   85  72  65 S9        29.91F HX  91
Newark/Liberty PTSUNNY   90  60  36 VRB3      29.89F
Bronx Bot Gard   N/A     90  59  35 SW3       29.91S
Wall St Helipt CLOUDY    90  73  58 SW3       29.91F HX  98
Teterboro      PTSUNNY   91  58  32 VRB3      29.89F HX  90
$$

NYZ177-179-078>081-281700-
LONG ISLAND NEW YORK

CITY           SKY/WX    TMP DP  RH WIND       PRES   REMARKS
Farmingdale    PTSUNNY   87  66  49 SW12      29.91S
MacArthur/ISP  PTSUNNY   87  71  58 S18       29.90F HX  93
Shirley        MOSUNNY   84  73  69 SE12      29.92S HX  90
Riverhead      NOT AVBL
Westhampton    MOSUNNY   82  73  74 VRB7      29.94F
Southhampton     N/A     77  73  88 S5        29.89S
Bridgehampton    N/A     86  75  70 SE2       29.92S HX  95
East Hampton   FAIR      80  73  79 S7        29.92S
Montauk          N/A     81  74  79 VRB5      29.93F
$$

NYZ052-065-067-281700-
HUDSON VALLEY

CITY           SKY/WX    TMP DP  RH WIND       PRES   REMARKS
White Plains   PTSUNNY   88  62  41 NW6       29.92F
Newburgh       MOSUNNY   86  68  54 CALM      29.94F
Montgomery     PTSUNNY   87  66  49 CALM      29.91F
Poughkeepsie   MOSUNNY   89  65  44 VRB3      29.90F HX  91
Albany         CLOUDY    85  64  49 S7        29.90F
$$

NJZ001-105-106-008-010-013-015-019>022-104-281700-
NEW JERSEY

CITY           SKY/WX    TMP DP  RH WIND       PRES   REMARKS
Newark/Liberty PTSUNNY   90  60  36 VRB3      29.89F
Teterboro      PTSUNNY   91  58  32 VRB3      29.89F HX  90
Caldwell       CLOUDY    89  59  36 S3        29.90F
Morristown     PTSUNNY   88  63  42 CALM      29.91F
Somerville     MOSUNNY   91  63  39 CALM      29.88F HX  92
Linden         FAIR      92  58  32 CALM      29.91F HX  91
Sussex         PTSUNNY   87  61  41 CALM      29.92F
Abdover          N/A     87  62  43 SW3       29.93F
Trenton        MOSUNNY   89  67  47 CALM      29.90F HX  92
Millville      CLOUDY    88  70  55 CALM      29.90F HX  93
Atlantic City  SUNNY     89  68  49 SE8       29.91S HX  93
Wrightstown    NOT AVBL
Toms River     PTSUNNY   90  73  57 S9        29.91F HX  98
Belmar         MOSUNNY   88  70  55 E8        29.92F HX  93
$$

PAZ047>061-062-071-281700-
EASTERN PENNSYLVANIA

CITY           SKY/WX    TMP DP  RH WIND       PRES   REMARKS
Philadelphia   PTSUNNY   91  67  44 SE5       29.90F HX  94
Allentown      SUNNY     90  67  46 NW3       29.91F HX  93
Scranton       PTSUNNY   88  65  46 VRB7      29.93F HX  90
$$

CTZ002-004>006-009-010-012-RIZ004-006-007-MAZ004-011-015-281700-
SOUTHERN NEW ENGLAND
 IN CT

CITY           SKY/WX    TMP DP  RH WIND       PRES   REMARKS
Bradley INTL   CLOUDY    90  61  37 CALM      29.90F HX  90
Hartford       PTSUNNY   91  66  43 SE6       29.89F HX  93
Danbury        PTSUNNY   87  61  41 W6        29.93F
Wtrbury/Oxford MOSUNNY   84  61  45 VRB5      29.96F
Bridgeport     CLOUDY    84  69  60 S6        29.91F
Meriden        PTSUNNY   92  60  34 CALM      29.90F HX  91
New Haven      PTSUNNY   83  70  64 S8        29.91F
Chester        FAIR      90  61  37 W3        29.92S
Groton         MOSUNNY   80  73  79 S9        29.91F
Wilimantic     MOSUNNY   89  63  41 VRB6      29.91F HX  90

 IN RI

CITY           SKY/WX    TMP DP  RH WIND       PRES   REMARKS
Providence     PTSUNNY   86  71  60 SE10      29.90F HX  91
Block Island   CLOUDY    77  73  87 S12       29.93F FOG
Westerly       SUNNY     83  70  64 S8        29.92F
 IN MA

CITY           SKY/WX    TMP DP  RH WIND       PRES   REMARKS
Boston         PTSUNNY   90  57  32 SW12G20   29.88F
Worchester     PTSUNNY   84  57  39 W6        29.94F
Westfield      CLOUDY    89  61  38 CALM      29.90F
Provincetown   MOSUNNY   87  68  52 S9        29.91F HX  90
Nantucket      MOSUNNY   76  70  82 S13       29.94S
$$

ANZ330-335-338-340-345-350-353-355-281700-
COASTAL MARINE OBSERVATIONS


STATION/POSITION TIME  SKY/WX   TEMP    WIND        PRES    VSBY  WAVE
                                AIR SEA DIR/SP/G                  HT/PER
                 (UTC)          (F)     (DEG/KT/KT) (MB)    (MI)  (FT/S)
NY HARB ENTRANCE 1450            77 76  190/  4/  4 1013.1          1/ 8
20S FIRE ISLAND  1450            75 77  150/  8/ 10 1013.1          2/ 6
GREAT SOUTH BAY  NOT AVBL
23 SSW MONTAUK P 1450            74 72  190/  4/  4 1014.0          1/ 7
15 E BARNEGAT LI NOT AVBL
HUDSON CANYON    1550            80 81              1013.2          2/ 6
KINGS POINT      1500            81 72              1012.8
EXECUTION ROCKS  1500            77      90/  4/  4   N/A
CENTRAL LI SOUND 1500            74 76  200/  4/  6   N/A           0
EASTERN LI SOUND 1500            75 69  180/  4/  4   N/A
ROBBINS REEF     1500            81     160/  7/  7 1012.3
$$


>>>>>>>>>>>>>>>>>>>>>>>>>>>> KEY <<<<<<<<<<<<<<<<<<<<<<<<<<<
>                                                          <
>     SKY/WX - Sky Condition/Present Weather               <
>     TMP    - Temperature in Fahrenheit                   <
>     DP     - Dew Point in Fahrenheit                     <
>     RH     - Relative Humidity in Percent                <
>     WIND   - Direction (from) and Speed in MPH           <
>     PRES   - Mean Sea Level Pressure (inches of Hg)      <
>     WCI    - Wind Chill Index                            <
>     VSB    - VISIBILITY IN MILES                         <
>     HX     - HEAT INDEX                                  <
>     TC     - TEMPERATURE IN CELSIUS                      <
>     VRB    - VARIABLE WIND DIRECTION                     <
>                                                          <
>>>>>>>>>>>>>>>>>>>>>>>>>>>> KEY <<<<<<<<<<<<<<<<<<<<<<<<<<<




USA.gov is the U.S. government's official web portal to all federal, state and local government web resources and services.